Location: Newark
(49.3000°N, 9.4667°E)
Time: 11:23:58
(UTC+00:00)

Transit 4A - Pass Details

Date: 28 May 2019
Orbit: 862 x 983 km, 66.8° (Epoch: 16 June)

Event Time Altitude Azimuth Distance (km) Brightness Sun altitude
Rises 22:58:06 0° 318° (NW) 3,697 11.9 -19.0°
Reaches altitude 10° 23:01:02 10° 307° (NW) 2,742 10.9 -19.0°
Maximum altitude 23:06:18 28° 252° (WSW) 1,753 9.2 -19.1°
Enters shadow 23:08:37 22° 219° (SW) 1,972 9.2 -19.1°
